owner,sensor,date,latitude,longitude,vertical_datum,wind_speed,wind_to_direction,wind_speed_of_gust,qcFlag 
WAVCIS,ioos:station:WAVCIS:CSI06:1,2009-05-01T00:00:00Z,28.8667,-90.4833,10.0,7.92,130.0,,'11111222,11111222,99999999' 
WAVCIS,ioos:station:WAVCIS:CSI06:1,2009-05-01T01:00:00Z,28.8667,-90.4833,10.0,8.54,128.0,,'11111222,11111222,99999999' 
WAVCIS,ioos:station:WAVCIS:CSI06:1,2009-05-01T02:00:00Z,28.8667,-90.4833,10.0,7.32,129.0,,'11111222,11111222,99999999' 
WAVCIS,ioos:station:WAVCIS:CSI06:1,2009-05-01T03:00:00Z,28.8667,-90.4833,10.0,8.43,131.0,,'11111222,11111222,99999999' 
WAVCIS,ioos:station:WAVCIS:CSI06:1,2009-05-01T04:00:00Z,28.8667,-90.4833,10.0,7.94,134.0,,'11111222,11111222,99999999' 
WAVCIS,ioos:station:WAVCIS:CSI06:1,2009-05-01T05:00:00Z,28.8667,-90.4833,10.0,7.77,136.0,,'11111222,11111222,99999999' 
WAVCIS,ioos:station:WAVCIS:CSI06:1,2009-05-01T06:00:00Z,28.8667,-90.4833,10.0,6.604,133.0,,'11111222,11111222,99999999' 
WAVCIS,ioos:station:WAVCIS:CSI06:1,2009-05-01T07:00:00Z,28.8667,-90.4833,10.0,6.252,134.0,,'11111222,11111222,99999999' 
WAVCIS,ioos:station:WAVCIS:CSI06:1,2009-05-01T08:00:00Z,28.8667,-90.4833,10.0,9.64,139.0,,'11111222,11111222,99999999' 
WAVCIS,ioos:station:WAVCIS:CSI06:1,2009-05-01T09:00:00Z,28.8667,-90.4833,10.0,6.489,140.0,,'11111222,11111222,99999999' 
WAVCIS,ioos:station:WAVCIS:CSI06:1,2009-05-01T10:00:00Z,28.8667,-90.4833,10.0,7.65,142.0,,'11111222,11111222,99999999' 
WAVCIS,ioos:station:WAVCIS:CSI06:1,2009-05-01T11:00:00Z,28.8667,-90.4833,10.0,5.768,145.0,,'11111222,11111222,99999999' 
WAVCIS,ioos:station:WAVCIS:CSI06:1,2009-05-01T12:00:00Z,28.8667,-90.4833,10.0,6.735,149.0,,'11111222,11111222,99999999' 
WAVCIS,ioos:station:WAVCIS:CSI06:1,2009-05-01T13:00:00Z,28.8667,-90.4833,10.0,6.613,147.0,,'11111222,11111222,99999999' 
WAVCIS,ioos:station:WAVCIS:CSI06:1,2009-05-01T14:00:00Z,28.8667,-90.4833,10.0,5.638,146.0,,'11111222,11111222,99999999' 
WAVCIS,ioos:station:WAVCIS:CSI06:1,2009-05-01T15:00:00Z,28.8667,-90.4833,10.0,4.904,146.0,,'11111222,11111222,99999999' 
WAVCIS,ioos:station:WAVCIS:CSI06:1,2009-05-01T16:00:00Z,28.8667,-90.4833,10.0,4.018,146.0,,'11111222,11111222,99999999' 
WAVCIS,ioos:station:WAVCIS:CSI06:1,2009-05-01T17:00:00Z,28.8667,-90.4833,10.0,4.946,138.0,,'11111222,11111222,99999999' 
WAVCIS,ioos:station:WAVCIS:CSI06:1,2009-05-01T18:00:00Z,28.8667,-90.4833,10.0,4.225,139.0,,'11111222,11111222,99999999' 
WAVCIS,ioos:station:WAVCIS:CSI06:1,2009-05-01T19:00:00Z,28.8667,-90.4833,10.0,3.699,131.0,,'11111222,11111222,99999999' 
WAVCIS,ioos:station:WAVCIS:CSI06:1,2009-05-01T20:00:00Z,28.8667,-90.4833,10.0,4.851,139.0,,'11111222,11111222,99999999' 
WAVCIS,ioos:station:WAVCIS:CSI06:1,2009-05-01T21:00:00Z,28.8667,-90.4833,10.0,5.025,141.0,,'11111222,11111222,99999999' 
WAVCIS,ioos:station:WAVCIS:CSI06:1,2009-05-01T22:00:00Z,28.8667,-90.4833,10.0,4.985,153.0,,'11111222,11111222,99999999' 
WAVCIS,ioos:station:WAVCIS:CSI06:1,2009-05-01T23:00:00Z,28.8667,-90.4833,10.0,5.465,149.0,,'11111222,11111222,99999999' 
WAVCIS,ioos:station:WAVCIS:CSI06:1,2009-05-02T00:00:00Z,28.8667,-90.4833,10.0,6.912,148.0,,'11111222,11111222,99999999' 
WAVCIS,ioos:station:WAVCIS:CSI06:1,2009-05-02T01:00:00Z,28.8667,-90.4833,10.0,7.42,145.0,,'11111222,11111222,99999999' 
WAVCIS,ioos:station:WAVCIS:CSI06:1,2009-05-02T02:00:00Z,28.8667,-90.4833,10.0,7.87,143.0,,'11111222,11111222,99999999' 
WAVCIS,ioos:station:WAVCIS:CSI06:1,2009-05-02T03:00:00Z,28.8667,-90.4833,10.0,7.42,143.0,,'11111222,11111222,99999999' 
WAVCIS,ioos:station:WAVCIS:CSI06:1,2009-05-02T04:00:00Z,28.8667,-90.4833,10.0,7.19,146.0,,'11111222,11111222,99999999' 
WAVCIS,ioos:station:WAVCIS:CSI06:1,2009-05-02T05:00:00Z,28.8667,-90.4833,10.0,7.73,151.0,,'11111222,11111222,99999999' 
WAVCIS,ioos:station:WAVCIS:CSI06:1,2009-05-02T06:00:00Z,28.8667,-90.4833,10.0,7.54,160.0,,'11111222,11111222,99999999' 
WAVCIS,ioos:station:WAVCIS:CSI06:1,2009-05-02T07:00:00Z,28.8667,-90.4833,10.0,8.31,162.0,,'11111222,11111222,99999999' 
WAVCIS,ioos:station:WAVCIS:CSI06:1,2009-05-02T08:00:00Z,28.8667,-90.4833,10.0,7.03,165.0,,'11111222,11111222,99999999' 
WAVCIS,ioos:station:WAVCIS:CSI06:1,2009-05-02T09:00:00Z,28.8667,-90.4833,10.0,7.46,168.0,,'11111222,11111222,99999999' 
WAVCIS,ioos:station:WAVCIS:CSI06:1,2009-05-02T10:00:00Z,28.8667,-90.4833,10.0,5.698,168.0,,'11111222,11111222,99999999' 
WAVCIS,ioos:station:WAVCIS:CSI06:1,2009-05-02T11:00:00Z,28.8667,-90.4833,10.0,5.921,165.0,,'11111222,11111222,99999999' 
WAVCIS,ioos:station:WAVCIS:CSI06:1,2009-05-02T12:00:00Z,28.8667,-90.4833,10.0,3.857,162.0,,'11111222,11111222,99999999' 
WAVCIS,ioos:station:WAVCIS:CSI06:1,2009-05-02T13:00:00Z,28.8667,-90.4833,10.0,3.491,146.0,,'11111222,11111222,99999999' 
WAVCIS,ioos:station:WAVCIS:CSI06:1,2009-05-02T14:00:00Z,28.8667,-90.4833,10.0,5.744,154.0,,'11111222,11111222,99999999' 
WAVCIS,ioos:station:WAVCIS:CSI06:1,2009-05-02T15:00:00Z,28.8667,-90.4833,10.0,5.683,171.0,,'11111222,11111222,99999999' 
WAVCIS,ioos:station:WAVCIS:CSI06:1,2009-05-02T16:00:00Z,28.8667,-90.4833,10.0,5.841,157.0,,'11111222,11111222,99999999' 
WAVCIS,ioos:station:WAVCIS:CSI06:1,2009-05-02T17:00:00Z,28.8667,-90.4833,10.0,6.486,148.0,,'11111222,11111222,99999999' 
WAVCIS,ioos:station:WAVCIS:CSI06:1,2009-05-02T18:00:00Z,28.8667,-90.4833,10.0,7.05,151.0,,'11111222,11111222,99999999' 
WAVCIS,ioos:station:WAVCIS:CSI06:1,2009-05-02T19:00:00Z,28.8667,-90.4833,10.0,7.15,151.0,,'11111222,11111222,99999999' 
WAVCIS,ioos:station:WAVCIS:CSI06:1,2009-05-02T20:00:00Z,28.8667,-90.4833,10.0,6.856,152.0,,'11111222,11111222,99999999' 
WAVCIS,ioos:station:WAVCIS:CSI06:1,2009-05-02T21:00:00Z,28.8667,-90.4833,10.0,7.71,153.0,,'11111222,11111222,99999999' 
WAVCIS,ioos:station:WAVCIS:CSI06:1,2009-05-02T22:00:00Z,28.8667,-90.4833,10.0,6.62,150.0,,'11111222,11111222,99999999' 
WAVCIS,ioos:station:WAVCIS:CSI06:1,2009-05-02T23:00:00Z,28.8667,-90.4833,10.0,7.56,150.0,,'11111222,11111222,99999999' 
WAVCIS,ioos:station:WAVCIS:CSI06:1,2009-05-03T00:00:00Z,28.8667,-90.4833,10.0,7.59,158.0,,'11111222,11111222,99999999' 
WAVCIS,ioos:station:WAVCIS:CSI06:1,2009-05-03T01:00:00Z,28.8667,-90.4833,10.0,9.06,157.0,,'11111222,11111222,99999999' 
WAVCIS,ioos:station:WAVCIS:CSI06:1,2009-05-03T02:00:00Z,28.8667,-90.4833,10.0,11.09,151.0,,'11111222,11111222,99999999' 
WAVCIS,ioos:station:WAVCIS:CSI06:1,2009-05-03T03:00:00Z,28.8667,-90.4833,10.0,10.46,152.0,,'11111222,11111222,99999999' 
WAVCIS,ioos:station:WAVCIS:CSI06:1,2009-05-03T04:00:00Z,28.8667,-90.4833,10.0,10.43,151.0,,'11111222,11111222,99999999' 
WAVCIS,ioos:station:WAVCIS:CSI06:1,2009-05-03T05:00:00Z,28.8667,-90.4833,10.0,11.09,157.0,,'11111222,11111222,99999999' 
WAVCIS,ioos:station:WAVCIS:CSI06:1,2009-05-03T06:00:00Z,28.8667,-90.4833,10.0,9.41,160.0,,'11111222,11111222,99999999' 
WAVCIS,ioos:station:WAVCIS:CSI06:1,2009-05-03T07:00:00Z,28.8667,-90.4833,10.0,8.39,159.0,,'11111222,11111222,99999999' 
WAVCIS,ioos:station:WAVCIS:CSI06:1,2009-05-03T08:00:00Z,28.8667,-90.4833,10.0,8.6,155.0,,'11111222,11111222,99999999' 
WAVCIS,ioos:station:WAVCIS:CSI06:1,2009-05-03T09:00:00Z,28.8667,-90.4833,10.0,7.96,151.0,,'11111222,11111222,99999999' 
WAVCIS,ioos:station:WAVCIS:CSI06:1,2009-05-03T10:00:00Z,28.8667,-90.4833,10.0,7.8,153.0,,'11111222,11111222,99999999' 
WAVCIS,ioos:station:WAVCIS:CSI06:1,2009-05-03T11:00:00Z,28.8667,-90.4833,10.0,10.96,149.0,,'11111222,11111222,99999999' 
WAVCIS,ioos:station:WAVCIS:CSI06:1,2009-05-03T12:00:00Z,28.8667,-90.4833,10.0,9.79,155.0,,'11111222,11111222,99999999' 
WAVCIS,ioos:station:WAVCIS:CSI06:1,2009-05-03T13:00:00Z,28.8667,-90.4833,10.0,9.73,157.0,,'11111222,11111222,99999999' 
WAVCIS,ioos:station:WAVCIS:CSI06:1,2009-05-03T14:00:00Z,28.8667,-90.4833,10.0,11.81,157.0,,'11111222,11111222,99999999' 
WAVCIS,ioos:station:WAVCIS:CSI06:1,2009-05-03T15:00:00Z,28.8667,-90.4833,10.0,11.19,167.0,,'11111222,11111222,99999999' 
WAVCIS,ioos:station:WAVCIS:CSI06:1,2009-05-03T16:00:00Z,28.8667,-90.4833,10.0,10.19,167.0,,'11111222,11111222,99999999' 
WAVCIS,ioos:station:WAVCIS:CSI06:1,2009-05-03T17:00:00Z,28.8667,-90.4833,10.0,8.61,170.0,,'11111222,11111222,99999999' 
WAVCIS,ioos:station:WAVCIS:CSI06:1,2009-05-03T18:00:00Z,28.8667,-90.4833,10.0,5.632,169.0,,'11111222,11111222,99999999' 
WAVCIS,ioos:station:WAVCIS:CSI06:1,2009-05-03T19:00:00Z,28.8667,-90.4833,10.0,5.564,158.0,,'11111222,11111222,99999999' 
WAVCIS,ioos:station:WAVCIS:CSI06:1,2009-05-03T20:00:00Z,28.8667,-90.4833,10.0,5.015,149.0,,'11111222,11111222,99999999' 
WAVCIS,ioos:station:WAVCIS:CSI06:1,2009-05-03T21:00:00Z,28.8667,-90.4833,10.0,6.005,143.0,,'11111222,11111222,99999999' 
WAVCIS,ioos:station:WAVCIS:CSI06:1,2009-05-03T22:00:00Z,28.8667,-90.4833,10.0,6.049,135.0,,'11111222,11111222,99999999' 
WAVCIS,ioos:station:WAVCIS:CSI06:1,2009-05-03T23:00:00Z,28.8667,-90.4833,10.0,5.847,129.0,,'11111222,11111222,99999999' 
WAVCIS,ioos:station:WAVCIS:CSI06:1,2009-05-04T00:00:00Z,28.8667,-90.4833,10.0,6.773,129.0,,'11111222,11111222,99999999' 
WAVCIS,ioos:station:WAVCIS:CSI06:1,2009-05-04T01:00:00Z,28.8667,-90.4833,10.0,7.72,134.0,,'11111222,11111222,99999999' 
WAVCIS,ioos:station:WAVCIS:CSI06:1,2009-05-04T02:00:00Z,28.8667,-90.4833,10.0,8.64,139.0,,'11111222,11111222,99999999' 
WAVCIS,ioos:station:WAVCIS:CSI06:1,2009-05-04T03:00:00Z,28.8667,-90.4833,10.0,8.71,148.0,,'11111222,11111222,99999999' 
WAVCIS,ioos:station:WAVCIS:CSI06:1,2009-05-04T04:00:00Z,28.8667,-90.4833,10.0,8.79,154.0,,'11111222,11111222,99999999' 
WAVCIS,ioos:station:WAVCIS:CSI06:1,2009-05-04T05:00:00Z,28.8667,-90.4833,10.0,8.81,163.0,,'11111222,11111222,99999999' 
WAVCIS,ioos:station:WAVCIS:CSI06:1,2009-05-04T06:00:00Z,28.8667,-90.4833,10.0,8.14,176.0,,'11111222,11111222,99999999' 
WAVCIS,ioos:station:WAVCIS:CSI06:1,2009-05-04T07:00:00Z,28.8667,-90.4833,10.0,7.55,186.0,,'11111222,11111222,99999999' 
WAVCIS,ioos:station:WAVCIS:CSI06:1,2009-05-04T08:00:00Z,28.8667,-90.4833,10.0,8.44,187.0,,'11111222,11111222,99999999' 
WAVCIS,ioos:station:WAVCIS:CSI06:1,2009-05-04T09:00:00Z,28.8667,-90.4833,10.0,8.83,190.0,,'11111222,11111222,99999999' 
WAVCIS,ioos:station:WAVCIS:CSI06:1,2009-05-04T10:00:00Z,28.8667,-90.4833,10.0,9.75,198.0,,'11111222,11111222,99999999' 
WAVCIS,ioos:station:WAVCIS:CSI06:1,2009-05-04T11:00:00Z,28.8667,-90.4833,10.0,9.65,199.0,,'11111222,11111222,99999999' 
WAVCIS,ioos:station:WAVCIS:CSI06:1,2009-05-04T12:00:00Z,28.8667,-90.4833,10.0,8.03,198.0,,'11111222,11111222,99999999' 
WAVCIS,ioos:station:WAVCIS:CSI06:1,2009-05-04T13:00:00Z,28.8667,-90.4833,10.0,6.627,216.0,,'11111222,11111222,99999999' 
WAVCIS,ioos:station:WAVCIS:CSI06:1,2009-05-04T14:00:00Z,28.8667,-90.4833,10.0,6.768,220.0,,'11111222,11111222,99999999' 
WAVCIS,ioos:station:WAVCIS:CSI06:1,2009-05-04T15:00:00Z,28.8667,-90.4833,10.0,5.999,202.0,,'11111222,11111222,99999999' 
WAVCIS,ioos:station:WAVCIS:CSI06:1,2009-05-04T16:00:00Z,28.8667,-90.4833,10.0,6.349,208.0,,'11111222,11111222,99999999' 
WAVCIS,ioos:station:WAVCIS:CSI06:1,2009-05-04T17:00:00Z,28.8667,-90.4833,10.0,5.691,211.0,,'11111222,11111222,99999999' 
WAVCIS,ioos:station:WAVCIS:CSI06:1,2009-05-04T18:00:00Z,28.8667,-90.4833,10.0,6.077,235.0,,'11111222,11111222,99999999' 
WAVCIS,ioos:station:WAVCIS:CSI06:1,2009-05-04T19:00:00Z,28.8667,-90.4833,10.0,2.889,249.0,,'11111222,11111222,99999999' 
WAVCIS,ioos:station:WAVCIS:CSI06:1,2009-05-04T20:00:00Z,28.8667,-90.4833,10.0,4.537,48.0,,'11111222,11111222,99999999' 
WAVCIS,ioos:station:WAVCIS:CSI06:1,2009-05-04T21:00:00Z,28.8667,-90.4833,10.0,2.5,101.0,,'11111222,11111222,99999999' 
WAVCIS,ioos:station:WAVCIS:CSI06:1,2009-05-04T22:00:00Z,28.8667,-90.4833,10.0,3.862,222.0,,'11111222,11111222,99999999' 
WAVCIS,ioos:station:WAVCIS:CSI06:1,2009-05-04T23:00:00Z,28.8667,-90.4833,10.0,4.735,218.0,,'11111222,11111222,99999999' 
WAVCIS,ioos:station:WAVCIS:CSI06:1,2009-05-05T00:00:00Z,28.8667,-90.4833,10.0,4.299,210.0,,'11111222,11111222,99999999' 
WAVCIS,ioos:station:WAVCIS:CSI06:1,2009-05-05T01:00:00Z,28.8667,-90.4833,10.0,3.215,220.0,,'11111222,11111222,99999999' 
WAVCIS,ioos:station:WAVCIS:CSI06:1,2009-05-05T02:00:00Z,28.8667,-90.4833,10.0,3.365,191.0,,'11111222,11111222,99999999' 
WAVCIS,ioos:station:WAVCIS:CSI06:1,2009-05-05T03:00:00Z,28.8667,-90.4833,10.0,4.384,183.0,,'11111222,11111222,99999999' 
WAVCIS,ioos:station:WAVCIS:CSI06:1,2009-05-05T04:00:00Z,28.8667,-90.4833,10.0,5.373,177.0,,'11111222,11111222,99999999' 
WAVCIS,ioos:station:WAVCIS:CSI06:1,2009-05-05T05:00:00Z,28.8667,-90.4833,10.0,5.504,181.0,,'11111222,11111222,99999999' 
WAVCIS,ioos:station:WAVCIS:CSI06:1,2009-05-05T06:00:00Z,28.8667,-90.4833,10.0,6.006,180.0,,'11111222,11111222,99999999' 
WAVCIS,ioos:station:WAVCIS:CSI06:1,2009-05-05T07:00:00Z,28.8667,-90.4833,10.0,6.133,190.0,,'11111222,11111222,99999999' 
WAVCIS,ioos:station:WAVCIS:CSI06:1,2009-05-05T08:00:00Z,28.8667,-90.4833,10.0,5.761,182.0,,'11111222,11111222,99999999' 
WAVCIS,ioos:station:WAVCIS:CSI06:1,2009-05-05T09:00:00Z,28.8667,-90.4833,10.0,4.623,179.0,,'11111222,11111222,99999999' 
WAVCIS,ioos:station:WAVCIS:CSI06:1,2009-05-05T10:00:00Z,28.8667,-90.4833,10.0,5.578,175.0,,'11111222,11111222,99999999' 
WAVCIS,ioos:station:WAVCIS:CSI06:1,2009-05-05T11:00:00Z,28.8667,-90.4833,10.0,5.911,177.0,,'11111222,11111222,99999999' 
WAVCIS,ioos:station:WAVCIS:CSI06:1,2009-05-05T12:00:00Z,28.8667,-90.4833,10.0,7.23,173.0,,'11111222,11111222,99999999' 
WAVCIS,ioos:station:WAVCIS:CSI06:1,2009-05-05T13:00:00Z,28.8667,-90.4833,10.0,6.903,171.0,,'11111222,11111222,99999999' 
WAVCIS,ioos:station:WAVCIS:CSI06:1,2009-05-05T14:00:00Z,28.8667,-90.4833,10.0,6.698,180.0,,'11111222,11111222,99999999' 
WAVCIS,ioos:station:WAVCIS:CSI06:1,2009-05-05T15:00:00Z,28.8667,-90.4833,10.0,6.158,185.0,,'11111222,11111222,99999999' 
WAVCIS,ioos:station:WAVCIS:CSI06:1,2009-05-05T16:00:00Z,28.8667,-90.4833,10.0,4.875,197.0,,'11111222,11111222,99999999' 
WAVCIS,ioos:station:WAVCIS:CSI06:1,2009-05-05T17:00:00Z,28.8667,-90.4833,10.0,4.744,180.0,,'11111222,11111222,99999999' 
WAVCIS,ioos:station:WAVCIS:CSI06:1,2009-05-05T18:00:00Z,28.8667,-90.4833,10.0,4.519,180.0,,'11111222,11111222,99999999' 
WAVCIS,ioos:station:WAVCIS:CSI06:1,2009-05-05T19:00:00Z,28.8667,-90.4833,10.0,3.627,193.0,,'11111222,11111222,99999999' 
WAVCIS,ioos:station:WAVCIS:CSI06:1,2009-05-05T20:00:00Z,28.8667,-90.4833,10.0,4.988,179.0,,'11111222,11111222,99999999' 
WAVCIS,ioos:station:WAVCIS:CSI06:1,2009-05-05T21:00:00Z,28.8667,-90.4833,10.0,4.237,173.0,,'11111222,11111222,99999999' 
WAVCIS,ioos:station:WAVCIS:CSI06:1,2009-05-05T22:00:00Z,28.8667,-90.4833,10.0,5.022,176.0,,'11111222,11111222,99999999' 
WAVCIS,ioos:station:WAVCIS:CSI06:1,2009-05-05T23:00:00Z,28.8667,-90.4833,10.0,5.302,163.0,,'11111222,11111222,99999999' 
WAVCIS,ioos:station:WAVCIS:CSI06:1,2009-05-06T00:00:00Z,28.8667,-90.4833,10.0,5.693,151.0,,'11111222,11111222,99999999' 
WAVCIS,ioos:station:WAVCIS:CSI06:1,2009-05-06T01:00:00Z,28.8667,-90.4833,10.0,6.246,155.0,,'11111222,11111222,99999999' 
WAVCIS,ioos:station:WAVCIS:CSI06:1,2009-05-06T02:00:00Z,28.8667,-90.4833,10.0,6.39,145.0,,'11111222,11111222,99999999' 
WAVCIS,ioos:station:WAVCIS:CSI06:1,2009-05-06T03:00:00Z,28.8667,-90.4833,10.0,8.16,145.0,,'11111222,11111222,99999999' 
WAVCIS,ioos:station:WAVCIS:CSI06:1,2009-05-06T04:00:00Z,28.8667,-90.4833,10.0,8.75,146.0,,'11111222,11111222,99999999' 
WAVCIS,ioos:station:WAVCIS:CSI06:1,2009-05-06T05:00:00Z,28.8667,-90.4833,10.0,10.62,151.0,,'11111222,11111222,99999999' 
WAVCIS,ioos:station:WAVCIS:CSI06:1,2009-05-06T06:00:00Z,28.8667,-90.4833,10.0,10.83,161.0,,'11111222,11111222,99999999' 
WAVCIS,ioos:station:WAVCIS:CSI06:1,2009-05-06T07:00:00Z,28.8667,-90.4833,10.0,10.9,162.0,,'11111222,11111222,99999999' 
WAVCIS,ioos:station:WAVCIS:CSI06:1,2009-05-06T08:00:00Z,28.8667,-90.4833,10.0,10.49,164.0,,'11111222,11111222,99999999' 
WAVCIS,ioos:station:WAVCIS:CSI06:1,2009-05-06T09:00:00Z,28.8667,-90.4833,10.0,10.68,163.0,,'11111222,11111222,99999999' 
WAVCIS,ioos:station:WAVCIS:CSI06:1,2009-05-06T10:00:00Z,28.8667,-90.4833,10.0,9.36,171.0,,'11111222,11111222,99999999' 
WAVCIS,ioos:station:WAVCIS:CSI06:1,2009-05-06T11:00:00Z,28.8667,-90.4833,10.0,9.41,168.0,,'11111222,11111222,99999999' 
WAVCIS,ioos:station:WAVCIS:CSI06:1,2009-05-06T12:00:00Z,28.8667,-90.4833,10.0,10.91,170.0,,'11111222,11111222,99999999' 
WAVCIS,ioos:station:WAVCIS:CSI06:1,2009-05-06T13:00:00Z,28.8667,-90.4833,10.0,9.43,177.0,,'11111222,11111222,99999999' 
WAVCIS,ioos:station:WAVCIS:CSI06:1,2009-05-06T14:00:00Z,28.8667,-90.4833,10.0,7.29,179.0,,'11111222,11111222,99999999' 
WAVCIS,ioos:station:WAVCIS:CSI06:1,2009-05-06T15:00:00Z,28.8667,-90.4833,10.0,7.16,170.0,,'11111222,11111222,99999999' 
WAVCIS,ioos:station:WAVCIS:CSI06:1,2009-05-06T16:00:00Z,28.8667,-90.4833,10.0,7.97,169.0,,'11111222,11111222,99999999' 
WAVCIS,ioos:station:WAVCIS:CSI06:1,2009-05-06T17:00:00Z,28.8667,-90.4833,10.0,8.14,168.0,,'11111222,11111222,99999999' 
WAVCIS,ioos:station:WAVCIS:CSI06:1,2009-05-06T18:00:00Z,28.8667,-90.4833,10.0,8.89,166.0,,'11111222,11111222,99999999' 
WAVCIS,ioos:station:WAVCIS:CSI06:1,2009-05-06T19:00:00Z,28.8667,-90.4833,10.0,8.42,169.0,,'11111222,11111222,99999999' 
WAVCIS,ioos:station:WAVCIS:CSI06:1,2009-05-06T20:00:00Z,28.8667,-90.4833,10.0,6.71,173.0,,'11111222,11111222,99999999' 
WAVCIS,ioos:station:WAVCIS:CSI06:1,2009-05-06T21:00:00Z,28.8667,-90.4833,10.0,7.4,166.0,,'11111222,11111222,99999999' 
WAVCIS,ioos:station:WAVCIS:CSI06:1,2009-05-06T22:00:00Z,28.8667,-90.4833,10.0,5.028,168.0,,'11111222,11111222,99999999' 
WAVCIS,ioos:station:WAVCIS:CSI06:1,2009-05-06T23:00:00Z,28.8667,-90.4833,10.0,5.653,155.0,,'11111222,11111222,99999999' 
WAVCIS,ioos:station:WAVCIS:CSI06:1,2009-05-07T00:00:00Z,28.8667,-90.4833,10.0,7.29,147.0,,'11111222,11111222,99999999' 
WAVCIS,ioos:station:WAVCIS:CSI06:1,2009-05-07T01:00:00Z,28.8667,-90.4833,10.0,7.17,154.0,,'11111222,11111222,99999999' 
WAVCIS,ioos:station:WAVCIS:CSI06:1,2009-05-07T02:00:00Z,28.8667,-90.4833,10.0,8.82,160.0,,'11111222,11111222,99999999' 
WAVCIS,ioos:station:WAVCIS:CSI06:1,2009-05-07T03:00:00Z,28.8667,-90.4833,10.0,9.22,167.0,,'11111222,11111222,99999999' 
WAVCIS,ioos:station:WAVCIS:CSI06:1,2009-05-07T04:00:00Z,28.8667,-90.4833,10.0,8.39,170.0,,'11111222,11111222,99999999' 
WAVCIS,ioos:station:WAVCIS:CSI06:1,2009-05-07T05:00:00Z,28.8667,-90.4833,10.0,8.27,166.0,,'11111222,11111222,99999999' 
WAVCIS,ioos:station:WAVCIS:CSI06:1,2009-05-07T06:00:00Z,28.8667,-90.4833,10.0,8.3,170.0,,'11111222,11111222,99999999' 
WAVCIS,ioos:station:WAVCIS:CSI06:1,2009-05-07T07:00:00Z,28.8667,-90.4833,10.0,7.61,171.0,,'11111222,11111222,99999999' 
WAVCIS,ioos:station:WAVCIS:CSI06:1,2009-05-07T08:00:00Z,28.8667,-90.4833,10.0,7.81,174.0,,'11111222,11111222,99999999' 
WAVCIS,ioos:station:WAVCIS:CSI06:1,2009-05-07T09:00:00Z,28.8667,-90.4833,10.0,7.64,178.0,,'11111222,11111222,99999999' 
WAVCIS,ioos:station:WAVCIS:CSI06:1,2009-05-07T10:00:00Z,28.8667,-90.4833,10.0,5.455,193.0,,'11111222,11111222,99999999' 
WAVCIS,ioos:station:WAVCIS:CSI06:1,2009-05-07T11:00:00Z,28.8667,-90.4833,10.0,4.804,184.0,,'11111222,11111222,99999999' 
WAVCIS,ioos:station:WAVCIS:CSI06:1,2009-05-07T12:00:00Z,28.8667,-90.4833,10.0,4.001,191.0,,'11111222,11111222,99999999' 
WAVCIS,ioos:station:WAVCIS:CSI06:1,2009-05-07T13:00:00Z,28.8667,-90.4833,10.0,4.109,193.0,,'11111222,11111222,99999999' 
WAVCIS,ioos:station:WAVCIS:CSI06:1,2009-05-07T14:00:00Z,28.8667,-90.4833,10.0,5.413,183.0,,'11111222,11111222,99999999' 
WAVCIS,ioos:station:WAVCIS:CSI06:1,2009-05-07T15:00:00Z,28.8667,-90.4833,10.0,5.738,195.0,,'11111222,11111222,99999999' 
WAVCIS,ioos:station:WAVCIS:CSI06:1,2009-05-07T16:00:00Z,28.8667,-90.4833,10.0,5.253,171.0,,'11111222,11111222,99999999' 
WAVCIS,ioos:station:WAVCIS:CSI06:1,2009-05-07T17:00:00Z,28.8667,-90.4833,10.0,5.84,171.0,,'11111222,11111222,99999999' 
WAVCIS,ioos:station:WAVCIS:CSI06:1,2009-05-07T18:00:00Z,28.8667,-90.4833,10.0,5.817,174.0,,'11111222,11111222,99999999' 
WAVCIS,ioos:station:WAVCIS:CSI06:1,2009-05-07T19:00:00Z,28.8667,-90.4833,10.0,6.574,172.0,,'11111222,11111222,99999999' 
WAVCIS,ioos:station:WAVCIS:CSI06:1,2009-05-07T20:00:00Z,28.8667,-90.4833,10.0,6.758,175.0,,'11111222,11111222,99999999' 
WAVCIS,ioos:station:WAVCIS:CSI06:1,2009-05-07T21:00:00Z,28.8667,-90.4833,10.0,6.891,176.0,,'11111222,11111222,99999999' 
WAVCIS,ioos:station:WAVCIS:CSI06:1,2009-05-07T22:00:00Z,28.8667,-90.4833,10.0,6.927,181.0,,'11111222,11111222,99999999' 
WAVCIS,ioos:station:WAVCIS:CSI06:1,2009-05-07T23:00:00Z,28.8667,-90.4833,10.0,6.084,176.0,,'11111222,11111222,99999999' 
WAVCIS,ioos:station:WAVCIS:CSI06:1,2009-05-08T00:00:00Z,28.8667,-90.4833,10.0,6.198,175.0,,'11111222,11111222,99999999' 
WAVCIS,ioos:station:WAVCIS:CSI06:1,2009-05-08T01:00:00Z,28.8667,-90.4833,10.0,7.28,175.0,,'11111222,11111222,99999999' 
WAVCIS,ioos:station:WAVCIS:CSI06:1,2009-05-08T02:00:00Z,28.8667,-90.4833,10.0,7.16,168.0,,'11111222,11111222,99999999' 
WAVCIS,ioos:station:WAVCIS:CSI06:1,2009-05-08T03:00:00Z,28.8667,-90.4833,10.0,8.05,169.0,,'11111222,11111222,99999999' 
WAVCIS,ioos:station:WAVCIS:CSI06:1,2009-05-08T04:00:00Z,28.8667,-90.4833,10.0,7.91,166.0,,'11111222,11111222,99999999' 
WAVCIS,ioos:station:WAVCIS:CSI06:1,2009-05-08T05:00:00Z,28.8667,-90.4833,10.0,7.37,163.0,,'11111222,11111222,99999999' 
WAVCIS,ioos:station:WAVCIS:CSI06:1,2009-05-08T06:00:00Z,28.8667,-90.4833,10.0,7.75,174.0,,'11111222,11111222,99999999' 
WAVCIS,ioos:station:WAVCIS:CSI06:1,2009-05-08T07:00:00Z,28.8667,-90.4833,10.0,7.56,176.0,,'11111222,11111222,99999999' 
WAVCIS,ioos:station:WAVCIS:CSI06:1,2009-05-08T08:00:00Z,28.8667,-90.4833,10.0,8.2,179.0,,'11111222,11111222,99999999' 
WAVCIS,ioos:station:WAVCIS:CSI06:1,2009-05-08T09:00:00Z,28.8667,-90.4833,10.0,8.64,183.0,,'11111222,11111222,99999999' 
WAVCIS,ioos:station:WAVCIS:CSI06:1,2009-05-08T10:00:00Z,28.8667,-90.4833,10.0,8.67,177.0,,'11111222,11111222,99999999' 
WAVCIS,ioos:station:WAVCIS:CSI06:1,2009-05-08T11:00:00Z,28.8667,-90.4833,10.0,8.67,179.0,,'11111222,11111222,99999999' 
WAVCIS,ioos:station:WAVCIS:CSI06:1,2009-05-08T12:00:00Z,28.8667,-90.4833,10.0,8.63,173.0,,'11111222,11111222,99999999' 
WAVCIS,ioos:station:WAVCIS:CSI06:1,2009-05-08T13:00:00Z,28.8667,-90.4833,10.0,10.11,168.0,,'11111222,11111222,99999999' 
WAVCIS,ioos:station:WAVCIS:CSI06:1,2009-05-08T14:00:00Z,28.8667,-90.4833,10.0,9.49,167.0,,'11111222,11111222,99999999' 
WAVCIS,ioos:station:WAVCIS:CSI06:1,2009-05-08T15:00:00Z,28.8667,-90.4833,10.0,10.64,172.0,,'11111222,11111222,99999999' 
WAVCIS,ioos:station:WAVCIS:CSI06:1,2009-05-08T16:00:00Z,28.8667,-90.4833,10.0,10.3,175.0,,'11111222,11111222,99999999' 
WAVCIS,ioos:station:WAVCIS:CSI06:1,2009-05-08T17:00:00Z,28.8667,-90.4833,10.0,8.65,176.0,,'11111222,11111222,99999999' 
WAVCIS,ioos:station:WAVCIS:CSI06:1,2009-05-08T18:00:00Z,28.8667,-90.4833,10.0,7.97,179.0,,'11111222,11111222,99999999' 
WAVCIS,ioos:station:WAVCIS:CSI06:1,2009-05-08T19:00:00Z,28.8667,-90.4833,10.0,7.81,179.0,,'11111222,11111222,99999999' 
WAVCIS,ioos:station:WAVCIS:CSI06:1,2009-05-08T20:00:00Z,28.8667,-90.4833,10.0,7.53,170.0,,'11111222,11111222,99999999' 
WAVCIS,ioos:station:WAVCIS:CSI06:1,2009-05-08T21:00:00Z,28.8667,-90.4833,10.0,8.04,167.0,,'11111222,11111222,99999999' 
WAVCIS,ioos:station:WAVCIS:CSI06:1,2009-05-08T22:00:00Z,28.8667,-90.4833,10.0,8.59,165.0,,'11111222,11111222,99999999' 
WAVCIS,ioos:station:WAVCIS:CSI06:1,2009-05-08T23:00:00Z,28.8667,-90.4833,10.0,9.11,162.0,,'11111222,11111222,99999999' 
WAVCIS,ioos:station:WAVCIS:CSI06:1,2009-05-09T00:00:00Z,28.8667,-90.4833,10.0,9.31,158.0,,'11111222,11111222,99999999' 
WAVCIS,ioos:station:WAVCIS:CSI06:1,2009-05-09T01:00:00Z,28.8667,-90.4833,10.0,9.47,169.0,,'11111222,11111222,99999999' 
WAVCIS,ioos:station:WAVCIS:CSI06:1,2009-05-09T02:00:00Z,28.8667,-90.4833,10.0,10.1,167.0,,'11111222,11111222,99999999' 
WAVCIS,ioos:station:WAVCIS:CSI06:1,2009-05-09T03:00:00Z,28.8667,-90.4833,10.0,10.0,161.0,,'11111222,11111222,99999999' 
WAVCIS,ioos:station:WAVCIS:CSI06:1,2009-05-09T04:00:00Z,28.8667,-90.4833,10.0,9.99,158.0,,'11111222,11111222,99999999' 
WAVCIS,ioos:station:WAVCIS:CSI06:1,2009-05-09T05:00:00Z,28.8667,-90.4833,10.0,9.67,158.0,,'11111222,11111222,99999999' 